Regional Weather Roundup
Issued by NWS Boston, MA

Home | Current Version | Previous Version | Text Only | Print | Product List | Glossary On
Versions: 1 2 3 4 5 6 7 8 9 10 11 12 13 14 15 16 17 18 19 20 21 22 23 24 25 26 27 28 29 30 31 32 33 34 35 36 37 38 39 40 41 42 43 44 45 46 47 48 49 50
000
ASUS41 KBOX 121410
RWRBOX

REGIONAL WEATHER ROUNDUP
NATIONAL WEATHER SERVICE TAUNTON MA
1000 AM EDT SAT JUL 12 2014

NOTE:  "FAIR" INDICATES FEW OR NO CLOUDS BELOW 12,000 FEET WITH NO
SIGNIFICANT WEATHER AND/OR OBSTRUCTIONS TO VISIBILITY.  THE FOLLOWING
OBSERVATION LOCATIONS DO NOT REPORT PRESENT WEATHER...PROVINCETOWN...
SMITHFIELD...BLOCK ISLAND...KEENE...AND OXFORD.

MAZALL-121500-
EASTERN MASSACHUSETTS

CITY           SKY/WX    TMP DP  RH WIND       PRES   REMARKS
BOSTON         SUNNY     73  61  65 SE6       30.22S
BEVERLY        SUNNY     76  62  62 CALM      30.21F
LAWRENCE       SUNNY     75  60  59 W3        30.23F
BEDFORD        SUNNY     75  61  61 MISG      30.21F
BLUE HILL        N/A     74  57  55 W5        30.23S
NORWOOD        SUNNY     78  58  49 NW3       30.22S
MARSHFIELD     SUNNY     77  59  53 NE3       30.23S
PLYMOUTH       SUNNY     77  57  50 SW8       30.22F
TAUNTON        SUNNY     77  59  53 SW6       30.22F
NEW BEDFORD    SUNNY     78  60  53 SW7       30.22S
$$

MAZALL-121500-
CAPE COD AND THE ISLANDS

CITY           SKY/WX    TMP DP  RH WIND       PRES   REMARKS
FALMOUTH       SUNNY     77  59  53 SW9       30.23S
HYANNIS        SUNNY     76  63  64 SW6       30.22S
CHATHAM        SUNNY     75  62  64 S6        30.24
PROVINCETOWN   SUNNY     73  59  60 SW9       30.23S
NANTUCKET      SUNNY     71  63  75 SW6       30.24S
MARTHAS VNYRD  SUNNY     75  59  57 W6        30.23F
$$

MAZALL-121500-
CENTRAL AND WESTERN MASSACHUSETTS

CITY           SKY/WX    TMP DP  RH WIND       PRES   REMARKS
WORCESTER      SUNNY     75  53  46 NW6       30.25S
FITCHBURG      SUNNY     79  54  41 W8        30.23F
ORANGE           N/A    N/A N/A N/A MISG      30.23F
SPRINGFIELD    NOT AVBL
WESTFIELD      NOT AVBL
NORTH ADAMS    SUNNY     72  58  61 VRB5      30.22F
PITTSFIELD     MOSUNNY   72  60  66 CALM      30.23F
$$

RIZALL-121500-
RHODE ISLAND

CITY           SKY/WX    TMP DP  RH WIND       PRES   REMARKS
PROVIDENCE     MOSUNNY   78  61  55 W7        30.23F
NEWPORT        MOSUNNY   76  59  55 CALM      30.23S
BLOCK ISLAND   SUNNY     77  59  53 W9        30.25S
SMITHFIELD     SUNNY     75  61  60 CALM      30.25F
WESTERLY       MOSUNNY   76  58  53 W7        30.24S
$$

CTZALL-121500-
CONNECTICUT

CITY           SKY/WX    TMP DP  RH WIND       PRES   REMARKS
BRADLEY INTL   MOSUNNY   75  60  59 VRB3      30.22F
HARTFORD       SUNNY     77  63  61 VRB3      30.22S
BRIDGEPORT     SUNNY     76  64  66 SW7       30.23F
DANBURY        SUNNY     76  61  59 VRB6      30.25S
GROTON         SUNNY     72  65  78 S7        30.23S
NEW HAVEN      MOSUNNY   77  63  61 SE7       30.23F
CHESTER        FAIR      77  63  61 SW6       30.25S
MERIDEN        SUNNY     77  63  61 SW6       30.23S
WILLIMANTIC    SUNNY     76  62  62 NW3       30.24S
OXFORD         MOSUNNY   75  63  64 SW5       30.27S
$$

MEZ002-015-021-024-NHZ003-005-008-011-012-014-VTZ005-008-121500-
NORTHERN NEW ENGLAND

CITY           SKY/WX    TMP DP  RH WIND       PRES   REMARKS
PORTLAND ME    SUNNY     75  59  57 CALM      30.21F
BANGOR ME      SUNNY     75  55  49 S3        30.21S
CONCORD NH     SUNNY     74  59  59 CALM      30.22F
MANCHESTER NH  SUNNY     76  57  51 VRB3      30.20F
NASHUA NH      SUNNY     76  58  53 VRB3      30.23S
PORTSMOUTH NH  NOT AVBL
JAFFREY NH     SUNNY     73  55  53 S5        30.26S
KEENE NH       SUNNY     70  54  56 CALM      30.24F
BURLINGTON VT  PTSUNNY   74  55  51 S12       30.19F
MT. WASHINGTON MOSUNNY   50  45  81 SW14        N/A
$$

NYZ052-076-121500-
EASTERN NEW YORK

CITY           SKY/WX    TMP DP  RH WIND       PRES   REMARKS
ALBANY         PTSUNNY   72  60  66 S6        30.20F
NEW YORK CITY  MOSUNNY   80  58  46 SW7       30.22S
$$

ANZALL-121500-
MARINE OBSERVATIONS

STATION/POSITION TIME  TEMP    WIND        PRES    VSBY  WAVE
                       AIR SEA DIR/SP/G                  HT/PER
                 (UTC) (F)     (DEG/KT/KT) (MB)    (MI)  (FT/S)
BOSTON BUOY      NOT AVBL
BUZZARDS BAY     NOT AVBL
NANTUCKET SOUND  NOT AVBL
MASS BAY-STELLWA NOT AVBL
ISLE OF SHOALS   NOT AVBL
S OF BLOCK IS    NOT AVBL
$$

......................KEY.........................
  SKY/WX - SKY CONDITION/PRESENT WEATHER
  TMP    - TEMPERATURE IN FAHRENHEIT
  DWPT   - DEWPOINT IN FAHRENHEIT
  RH     - RELATIVE HUMIDITY IN PERCENT
  WIND   - DIRECTION AND SPEED IN MPH
  PRES   - MEAN SEA LEVEL PRESSURE IN INCHES OF HG
  WCI    - WIND CHILL INDEX
  VSB    - VISIBILITY IN MILES
  HX     - HEAT INDEX
  TC     - TEMPERATURE IN CELSIUS
  VRB    - VARIABLE WIND DIRECTION
  N/A    - NOT AVAILABLE


USA.gov is the U.S. government's official web portal to all federal, state and local government web resources and services.